Regional Weather Roundup
Issued by NWS

Home | Current Version | Previous Version | Text Only | Print | Product List | Glossary Off
Versions: 1 2 3 4 5 6 7 8 9 10 11 12 13 14 15 16 17 18 19 20 21 22 23 24 25 26 27 28 29 30 31 32 33 34 35 36 37 38 39 40 41 42 43 44 45 46 47 48 49 50

000
ASUS45 KTFX 071110
RWRMT
MONTANA REGIONAL WEATHER ROUNDUP
NATIONAL WEATHER SERVICE GREAT FALLS MT
400 AM MST WED DEC 07 2016

NOTE: "FAIR" INDICATES FEW OR NO CLOUDS BELOW 12000 FEET WITH NO
SIGNIFICANT WEATHER AND/OR OBSTRUCTIONS TO VISIBILITY.

MTZ001>007-043-071200-
WEST OF THE DIVIDE

CITY           SKY/WX    TMP DP  RH WIND       PRES   REMARKS
KALISPELL      CLOUDY     8  -3  61 NE16      30.34R WCI -10
MISSOULA       CLOUDY    12  -1  56 E16       30.31R WCI  -5
BUTTE          CLOUDY     1  -5  75 CALM      30.12R
MULLAN PASS    CLOUDY     5   2  87 CALM      30.04R
ANACONDA         N/A      1  -6  71 CALM      30.18R
DEER LODGE       N/A      1  -8  66 NW5       30.23R
EUREKA           N/A     -8 -11  84 CALM      30.41R
HAMILTON         N/A     14   3  62 N3        30.25R
LIBBY            N/A     16   3  57 E3        30.35R
RONAN            N/A     15   7  71 CALM      30.29R
$$

MTZ008-052>055-071200-
SOUTHWEST MONTANA

CITY           SKY/WX    TMP DP  RH WIND       PRES   REMARKS
BOZEMAN        CLOUDY     4  -1  80 SW6       30.24R WCI  -7
DILLON         CLOUDY     2  -4  76 NE8       30.14R WCI -12
W YELLOWSTONE  CLOUDY   -26 -29  83 CALM      30.01R
ENNIS          CLOUDY    -8 -13  77 NE3       30.19R
THREE FORKS      N/A      4 -59   4 NE6       30.22R WCI  -7
$$

MTZ009-010-012-014-046-048-049-054-071200-
EAST SLOPES AND CENTRAL MONTANA

CITY           SKY/WX    TMP DP  RH WIND       PRES   REMARKS
CUT BANK       CLEAR    -10 -15  78 NW9       30.36R WCI -27
GREAT FALLS    CLOUDY    -3  -8  79 SW6       30.38R WCI -15
MALMSTROM AFB  FLURRIES  -2  -6  81 SW8       30.41S WCI -17
HELENA         CLOUDY     1  -8  66 W10       30.33S WCI -15
AUGUSTA        FLURRIES  -5 -10  79 N7        30.29R WCI -19
CHOTEAU          N/A     -4  -9  77 MISG      30.37S
CONRAD           N/A     -5 -12  71 W3        30.34S
FAIRFIELD      FLURRIES  -4 -11  71 NW9       30.35R WCI -20
POWER          MOCLDY    -7 -12  78 NW10      30.36R WCI -25
ULM            FLURRIES  -5  -9  83 W6        30.40R WCI -17
$$

MTZ011-013-016-021-045-047-050-051-071200-
NORTH CENTRAL MONTANA

CITY           SKY/WX    TMP DP  RH WIND       PRES   REMARKS
HAVRE          CLOUDY     0  -5  79 W9        30.46R WCI -15
LEWISTOWN      PTCLDY    -7 -12  79 W8        30.30R WCI -23
N BAR RANCH    MOCLDY    -4 -13  65 NW12      30.23R WCI -22
CHINOOK          N/A      0  -6  78 W12       30.46S WCI -18
GEYSER           N/A     -5 -11  77 W18G24    30.30R WCI -28
GRASS RANGE    MOCLDY    -4 -10  77 W24G32    30.26R WCI -29
JUDITH GAP       N/A     -8 -13  79 NW21G29   30.21R WCI -34
ROY            FLURRIES  -3  -8  79 MISG      30.31R
STANFORD         N/A    -10 -14  85 S1        30.27R
$$

MTZ017>020-022>027-061-062-071200-
NORTHEAST MONTANA

CITY           SKY/WX    TMP DP  RH WIND       PRES   REMARKS
GLASGOW        MOCLDY     0  -8  69 NW26      30.37R WCI -25
JORDAN           N/A      2  -5  72 NW21      30.35R WCI -20
SIDNEY         CLOUDY     3  -4  72 NW28      30.28R WCI -21
WOLF POINT     CLOUDY     2  -7  66 NW14      30.37R WCI -16
PLENTYWOOD       N/A     -2  -9  71 NW23G29   30.24R WCI -26
POPLAR           N/A      0  -9  65 W9        30.36R WCI -16
SCOBEY           N/A     -3 -13  62 W15       30.24R WCI -23
$$

MTZ028>42-056>058-071200-
SOUTHCENTRAL AND SOUTHEAST MONTANA

CITY           SKY/WX    TMP DP  RH WIND       PRES   REMARKS
BAKER          CLOUDY    -1  -7  75 W21       30.24R WCI -24
BILLINGS       PTCLDY     2  -3  80 E5        30.29R
LIVINGSTON     CLOUDY     2  -6  69 NW10      30.19R WCI -14
MILES CITY     CLOUDY     2  -8  63 NW17      30.34R WCI -18
BIG TIMBER     CLOUDY     3  -2  78 W3        30.23R
EKALAKA          N/A     -4 -12  68 W16       30.14R WCI -25
FORSYTH          N/A      1  -6  71 NW8       30.37R WCI -12
HARLOWTON      MOCLDY    -6 -11  77 N16       30.23R WCI -27
LAUREL           N/A      4  -7  60 NE1       30.24R
$$

REGIONAL REPORTS...DAKOTAS

CITY           SKY/WX    TMP DP  RH WIND       PRES   REMARKS
WILLISTON      MOCLDY     1  -7  68 NW16G24   30.28R WCI -19
MINOT          LGT SNOW   6   1  80 W35G43    30.06R WCI -19
DICKINSON      CLOUDY     1  -4  79 W30G36    30.14S HAZE    WCI -24
BEACH          LGT SNOW   1  -2  85 NW24G30   30.25R WCI -22
CROSBY         CLOUDY     0  -2  92 NW25G32   30.23R WCI -25
TIOGA          CLOUDY     1   0  92 NW29G36   30.19R FOG     WCI -24
WATFORD CITY   CLOUDY     1  -2  85 NW18G28   30.24R HAZE    WCI -19
BISMARCK       CLOUDY     6   0  76 W24G32    30.14R WCI -16
GRAND FORKS    LGT SNOW  15  10  80 W28G36    29.85R BLWGSNOWWCI  -5
FARGO          FLURRIES  13   6  74 W25G33    29.92R WCI  -7
BUFFALO SD       N/A      1  -5  75 NW18      30.13R WCI -20
RAPID CITY     CLOUDY     4  -4  69 N18       30.19R WCI -16
$$

REGIONAL REPORTS...WYOMING/IDAHO/WASHINGTON

CITY           SKY/WX    TMP DP  RH WIND       PRES   REMARKS
GILLETTE       CLOUDY    -1  -4  87 N9        30.17R WCI -16
SHERIDAN       CLOUDY     1  -6  72 NW15      30.26R WCI -18
BUFFALO WY     CLOUDY    -1  -8  72 NW8       30.14R WCI -15
CODY           FLURRIES   0  -5  79 NE8       30.13R WCI -14
YELLOWSTONE LA   N/A     -7 -10  87 N3        29.91R
IDAHO FALLS    CLEAR      7   0  73 CALM      30.11R
SALMON         CLOUDY    10   9  92 E3        30.17R
BOISE          PTCLDY    13  10  88 SE3       30.24R
SPOKANE        FLURRIES  22  14  71 SE3       30.29R
$$

REGIONAL REPORTS...ALBERTA

CITY           SKY/WX    TMP DP  RH WIND       PRES   REMARKS
EDMONTON       PTCLDY    -8 -17  65 W7        30.53R WCI -22
CALGARY        PTCLDY    -8 -17  65 N13       30.39R WCI -28
LETHBRIDGE     CLOUDY    -8 -13  77 W10       30.46R WCI -26
MEDICINE HAT   CLOUDY    -2  -8  78 W12       30.49R WCI -20
WATERTON GATE    N/A    -11 -17  77 CALM        N/A
CARDSTON         N/A    -17 -22  76 CALM        N/A
MILK RIVER       N/A     -8 -13  77 NW7         N/A  WCI -22
$$

REGIONAL REPORTS...SASKATCHEWAN

CITY           SKY/WX    TMP DP  RH WIND       PRES   REMARKS
SWIFT CURRENT  MOCLDY    -8 -11  84 W21G28    30.30R WCI -32
REGINA         CLOUDY     0  -6  78 NW18G24   30.27R WCI -22
SASKATOON      FLURRIES   0  -8  71 NW13G21   30.36R WCI -18
CYPRESS HILLS    N/A    -11 -17  77 NW13G23     N/A  WCI -32
VAL MARIE        N/A     -6 -11  77 NW10        N/A  WCI -23
ROCKGLEN         N/A     -8 -11  84 NW17G29     N/A  WCI -31
$$



USA.gov is the U.S. government's official web portal to all federal, state and local government web resources and services.